Regional Weather Roundup
Issued by NWS

Home | Current Version | Previous Version | Graphics & Text | Print | Product List | Glossary On
Versions: 1 2 3 4 5 6 7 8 9 10 11 12 13 14 15 16 17 18 19 20 21 22 23 24 25 26 27 28 29 30 31 32 33 34 35 36 37 38 39 40 41 42 43 44 45 46 47 48 49 50
000
ASUS43 KFSD 300910
RWRSD

WEATHER ROUNDUP FOR SOUTH DAKOTA
NATIONAL WEATHER SERVICE SIOUX FALLS SD
400 AM CDT THU JUL 30 2015

NOTE: "FAIR" INDICATES FEW OR NO CLOUDS BELOW 12,000 FEET WITH NO
SIGNIFICANT WEATHER AND/OR OBSTRUCTIONS TO VISIBILITY.


SDZ001>005-009-010-012>017-301000-
NORTHWEST AND NORTH CENTRAL SOUTH DAKOTA

CITY           SKY/WX    TMP DP  RH WIND       PRES   REMARKS
BUFFALO          N/A     56  40  55 W7        30.15R
FAITH            N/A     64  39  39 CALM      30.18S
MOBRIDGE       CLEAR     55  53  93 CALM      30.12R
$$

SDZ012>016-024>037-041>051-057-063-072>074-301000-
SOUTHWEST AND SOUTH CENTRAL SOUTH DAKOTA

CITY           SKY/WX    TMP DP  RH WIND       PRES   REMARKS
RAPID CTY ARPT CLEAR     57  47  69 N9        30.22S
PIERRE         CLEAR     57  48  72 CALM      30.12S
CUSTER         CLEAR     48  38  68 N5        30.35R
ELLSWORTH AFB  CLEAR     56  46  69 NW6       30.22R
PHILIP         CLEAR     55  52  89 W6        30.16F
PINE RIDGE     CLEAR     52  47  83 CALM      30.21S
SPEARFISH      FAIR      54  41  62 CALM      30.28S
WINNER         FAIR      70  51  51 SW9       30.15S
$$

SDZ004>011-016>023-039-040-301000-
NORTHEAST SOUTH DAKOTA

CITY           SKY/WX    TMP DP  RH WIND       PRES   REMARKS
ABERDEEN       CLEAR     55  52  89 SW3       30.10R
WATERTOWN      CLEAR     59  54  83 SW6       30.10S
BROOKINGS      CLEAR     61  54  77 S3        30.13S
SISSETON         N/A     66  53  63 W15       30.05R
$$

SDZ017-020-022-023-036>040-048>070-301000-
SOUTHEAST SOUTH DAKOTA

CITY           SKY/WX    TMP DP  RH WIND       PRES   REMARKS
SIOUX FALLS    CLEAR     62  57  83 W3        30.13R
HURON          CLEAR     58  53  84 W5        30.10S
CHAMBERLAIN    CLEAR     63  55  77 CALM      30.14R
MITCHELL       CLEAR     60  56  86 CALM      30.12S
YANKTON        CLOUDY    64  54  68 CALM      30.13R
$$

ABBREVIATIONS USED IN REMARKS
   TC - TEMPERATURE IN CELSIUS
  WCI - WIND CHILL INDEX
   HX - HEAT INDEX
  VSB - VISIBILITY




USA.gov is the U.S. government's official web portal to all federal, state and local government web resources and services.